GW0118 Weather Reports


Display with metric or nautical units.
time (UTC)temp
F
wind
direction
speed
MPH
gust
MPH
rain 1hr
in
rain 24hr
in
rain mn
in
humidity
%
barometer
mb
20260504211605 50 355 1.0 7.0 0.00 0.00 0.00 76 1014.5
20260504210105 50 344 1.0 4.0 0.00 0.00 0.00 76 1014.6
20260504204638 51 304 0.0 1.0 0.00 0.00 0.00 74 1014.2
20260504203102 51 0 0.0 4.0 0.00 0.00 0.00 73 1014.1
20260504201602 52 262 2.0 7.0 0.00 0.00 0.00 71 1013.7
20260504194603 53 0 0.0 3.0 0.00 0.00 0.00 69 1013.4
20260504193100 53 40 1.0 4.0 0.00 0.00 0.00 69 1013.2
20260504191559 54 27 1.0 5.0 0.00 0.00 0.00 68 1013.1
20260504184605 54 330 3.0 8.0 0.00 0.00 0.00 65 1012.8
20260504183101 55 340 5.0 11.0 0.00 0.00 0.00 64 1012.8
20260504181559 55 319 7.0 12.0 0.00 0.00 0.00 63 1012.6
20260504180058 56 334 6.0 10.0 0.00 0.00 0.00 62 1012.5
20260504174557 56 288 7.0 14.0 0.00 0.00 0.00 61 1012.5
20260504173058 57 338 9.0 17.0 0.00 0.00 0.00 60 1012.4
20260504171558 57 312 10.0 20.0 0.00 0.00 0.00 60 1012.4
20260504150106 57 50 3.0 12.0 0.00 0.00 0.00 62 1011.9
20260504081559 53 236 4.0 9.0 0.00 0.40 0.00 79 1013.3
20260504070106 51 0 1.0 3.0 0.00 0.40 0.00 83 1013.2
20260504050107 48 0 0.0 1.0 0.00 0.40 0.00 92 1012.9
20260504044604 48 0 0.0 1.0 0.00 0.40 0.00 92 1013.0
20260504043100 48 0 0.0 2.0 0.00 0.40 0.00 92 1012.9
20260504041559 48 56 0.0 0.0 0.00 0.40 0.00 92 1013.1
20260504040058 48 0 0.0 1.0 0.00 0.40 0.00 92 1013.0
20260504034614 48 64 0.0 3.0 0.00 0.40 0.00 92 1013.2
20260504033100 48 0 0.0 2.0 0.00 0.40 0.00 93 1013.5
20260504031602 47 0 0.0 3.0 0.00 0.39 0.00 92 1013.2
20260504030056 47 0 1.0 3.0 0.00 0.39 0.00 92 1013.2
20260504024559 47 0 1.0 2.0 0.00 0.39 0.00 92 1013.5
20260504023058 47 0 0.0 3.0 0.00 0.39 0.00 92 1013.3
20260504021559 47 90 0.0 3.0 0.00 0.39 0.00 91 1013.2
20260504020057 47 58 0.0 2.0 0.00 0.39 0.00 92 1013.4
20260504014616 47 102 0.0 1.0 0.00 0.39 0.00 91 1013.4
20260504013104 47 0 0.0 0.0 0.00 0.39 0.00 91 1013.3
20260504011603 47 262 0.0 1.0 0.00 0.39 0.00 91 1013.3
20260504010101 47 117 1.0 4.0 0.00 0.39 0.00 91 1013.2
20260504004559 47 0 0.0 2.0 0.00 0.40 0.00 90 1013.4
20260504003100 48 118 1.0 3.0 0.00 0.40 0.00 89 1013.6
20260504001620 48 94 1.0 2.0 0.00 0.40 0.00 89 1013.7
20260504000110 49 0 0.0 1.0 0.00 0.40 0.00 88 1013.9
20260503234605 49 0 0.0 1.0 0.00 0.40 0.00 88 1014.1
20260503233057 49 0 0.0 0.0 0.00 0.40 0.00 88 1014.1
20260503231559 49 0 0.0 1.0 0.00 0.40 0.00 87 1014.0
20260503230100 49 0 0.0 3.0 0.00 0.40 0.00 86 1014.0
20260503224558 50 144 2.0 3.0 0.00 0.40 0.00 85 1014.2
20260503223103 51 0 0.0 0.0 0.00 0.40 0.00 82 1014.2
20260503221559 51 0 0.0 0.0 0.00 0.40 0.00 81 1014.2
20260503214557 52 0 0.0 3.0 0.00 0.40 0.40 80 1014.2
20260503213111 52 290 1.0 3.0 0.00 0.40 0.40 79 1014.1